TimeCST,TemperatureF,Dew PointF,Humidity,Sea Level PressureIn,VisibilityMPH,Wind Direction,Wind SpeedMPH,Gust SpeedMPH,PrecipitationIn,Events,Conditions,WindDirDegrees,DateUTC
12:15 AM,23.0,1.4,39,30.21,10.0,SE,10.4,-,N/A,,Clear,130,2014-02-12 06:15:00
12:35 AM,21.2,1.4,42,30.21,10.0,SE,6.9,-,N/A,,Clear,140,2014-02-12 06:35:00
12:55 AM,23.0,1.4,39,30.20,10.0,ESE,4.6,-,N/A,,Clear,120,2014-02-12 06:55:00
1:15 AM,23.0,-0.4,36,30.20,10.0,Calm,Calm,-,N/A,,Clear,0,2014-02-12 07:15:00
1:35 AM,23.0,-0.4,36,30.20,10.0,Calm,Calm,-,N/A,,Clear,0,2014-02-12 07:35:00
1:55 AM,19.4,-0.4,42,30.20,10.0,Calm,Calm,-,N/A,,Clear,0,2014-02-12 07:55:00
2:15 AM,19.4,1.4,46,30.20,10.0,Calm,Calm,-,N/A,,Clear,0,2014-02-12 08:15:00
2:35 AM,17.6,1.4,49,30.19,10.0,Calm,Calm,-,N/A,,Clear,0,2014-02-12 08:35:00
2:55 AM,17.6,1.4,49,30.18,10.0,Calm,Calm,-,N/A,,Clear,0,2014-02-12 08:55:00
3:15 AM,19.4,-0.4,42,30.16,10.0,ESE,4.6,-,N/A,,Clear,120,2014-02-12 09:15:00
3:35 AM,19.4,-0.4,42,30.15,10.0,ESE,4.6,-,N/A,,Clear,110,2014-02-12 09:35:00
3:55 AM,19.4,-0.4,42,30.15,10.0,Calm,Calm,-,N/A,,Clear,0,2014-02-12 09:55:00
4:15 AM,19.4,-0.4,42,30.15,10.0,Calm,Calm,-,N/A,,Clear,0,2014-02-12 10:15:00
4:35 AM,19.4,-0.4,42,30.15,10.0,Calm,Calm,-,N/A,,Clear,0,2014-02-12 10:35:00
4:55 AM,17.6,-0.4,45,30.16,10.0,Calm,Calm,-,N/A,,Clear,0,2014-02-12 10:55:00
5:15 AM,15.8,1.4,53,30.16,10.0,Calm,Calm,-,N/A,,Clear,0,2014-02-12 11:15:00
5:35 AM,15.8,1.4,53,30.16,10.0,Calm,Calm,-,N/A,,Clear,0,2014-02-12 11:35:00
5:55 AM,17.6,1.4,49,30.16,10.0,Calm,Calm,-,N/A,,Clear,0,2014-02-12 11:55:00
6:15 AM,15.8,1.4,53,30.14,10.0,East,3.5,-,N/A,,Clear,100,2014-02-12 12:15:00
6:35 AM,17.6,1.4,49,30.14,10.0,Calm,Calm,-,N/A,,Clear,0,2014-02-12 12:35:00
6:55 AM,17.6,1.4,49,30.15,10.0,Calm,Calm,-,N/A,,Clear,0,2014-02-12 12:55:00
7:15 AM,17.6,3.2,53,30.15,10.0,Calm,Calm,-,N/A,,Clear,0,2014-02-12 13:15:00
7:35 AM,17.6,6.8,63,30.16,10.0,Calm,Calm,-,N/A,,Clear,0,2014-02-12 13:35:00
7:55 AM,17.6,5.0,58,30.15,10.0,ESE,3.5,-,N/A,,Clear,110,2014-02-12 13:55:00
8:15 AM,19.4,5.0,54,30.15,10.0,ESE,8.1,-,N/A,,Clear,110,2014-02-12 14:15:00
8:35 AM,23.0,5.0,46,30.15,10.0,ESE,3.5,-,N/A,,Clear,120,2014-02-12 14:35:00
8:55 AM,24.8,6.8,46,30.14,10.0,ESE,3.5,-,N/A,,Clear,120,2014-02-12 14:55:00
9:15 AM,24.8,5.0,43,30.14,10.0,Calm,Calm,-,N/A,,Clear,0,2014-02-12 15:15:00
9:35 AM,26.6,5.0,40,30.15,10.0,Calm,Calm,-,N/A,,Clear,0,2014-02-12 15:35:00
9:55 AM,26.6,5.0,40,30.14,10.0,Calm,Calm,-,N/A,,Clear,0,2014-02-12 15:55:00
10:15 AM,28.4,5.0,37,30.14,10.0,Calm,Calm,-,N/A,,Clear,0,2014-02-12 16:15:00
10:35 AM,30.2,5.0,34,30.14,10.0,Calm,Calm,-,N/A,,Clear,0,2014-02-12 16:35:00
10:55 AM,32.0,6.8,35,30.14,10.0,West,4.6,-,N/A,,Clear,260,2014-02-12 16:55:00
11:15 AM,-9999,-9999,N/A,30.13,10.0,West,3.5,-,N/A,,Clear,270,2014-02-12 17:15:00
11:35 AM,33.8,10.4,38,30.12,10.0,West,3.5,-,N/A,,Clear,280,2014-02-12 17:35:00
11:55 AM,35.6,10.4,35,30.11,10.0,SSW,3.5,-,N/A,,Clear,200,2014-02-12 17:55:00
12:15 PM,35.6,8.6,33,30.10,10.0,North,3.5,-,N/A,,Clear,350,2014-02-12 18:15:00
12:35 PM,37.4,8.6,30,30.08,10.0,NW,5.8,-,N/A,,Clear,320,2014-02-12 18:35:00
12:55 PM,37.4,10.4,33,30.07,10.0,NW,6.9,-,N/A,,Clear,310,2014-02-12 18:55:00
1:15 PM,39.2,8.6,28,30.05,10.0,WNW,6.9,-,N/A,,Clear,290,2014-02-12 19:15:00
1:35 PM,39.2,8.6,28,30.03,10.0,Calm,Calm,-,N/A,,Clear,0,2014-02-12 19:35:00
1:55 PM,39.2,10.4,31,30.02,10.0,Calm,Calm,-,N/A,,Clear,0,2014-02-12 19:55:00
2:15 PM,41.0,14.0,33,30.01,10.0,Calm,Calm,-,N/A,,Clear,0,2014-02-12 20:15:00
2:35 PM,41.0,15.8,36,30.00,10.0,NNE,4.6,-,N/A,,Clear,20,2014-02-12 20:35:00
2:55 PM,41.0,15.8,36,29.99,10.0,NNE,4.6,-,N/A,,Clear,20,2014-02-12 20:55:00
3:15 PM,42.8,15.8,34,29.98,10.0,Calm,Calm,-,N/A,,Scattered Clouds,0,2014-02-12 21:15:00
3:35 PM,42.8,17.6,36,29.98,10.0,NW,6.9,-,N/A,,Overcast,310,2014-02-12 21:35:00
3:55 PM,41.0,17.6,39,29.98,10.0,NW,5.8,-,N/A,,Overcast,320,2014-02-12 21:55:00
4:15 PM,41.0,17.6,39,29.98,10.0,Calm,Calm,-,N/A,,Overcast,0,2014-02-12 22:15:00
4:35 PM,41.0,19.4,42,29.98,10.0,WNW,5.8,-,N/A,,Overcast,300,2014-02-12 22:35:00
4:55 PM,41.0,19.4,42,29.99,10.0,WNW,6.9,-,N/A,,Scattered Clouds,290,2014-02-12 22:55:00
5:15 PM,41.0,17.6,39,29.99,10.0,NW,8.1,-,N/A,,Mostly Cloudy,310,2014-02-12 23:15:00
5:35 PM,39.2,19.4,45,30.00,10.0,NW,4.6,-,N/A,,Overcast,310,2014-02-12 23:35:00
5:55 PM,39.2,19.4,45,30.00,10.0,West,3.5,-,N/A,,Overcast,280,2014-02-12 23:55:00
6:15 PM,39.2,19.4,45,30.01,10.0,NW,4.6,-,N/A,,Overcast,310,2014-02-13 00:15:00
6:35 PM,39.2,19.4,45,30.02,10.0,NNW,4.6,-,N/A,,Overcast,330,2014-02-13 00:35:00
6:55 PM,39.2,19.4,45,30.01,10.0,Calm,Calm,-,N/A,,Overcast,0,2014-02-13 00:55:00
7:15 PM,37.4,19.4,48,30.01,10.0,North,3.5,-,N/A,,Mostly Cloudy,10,2014-02-13 01:15:00
7:35 PM,37.4,19.4,48,30.00,10.0,Calm,Calm,-,N/A,,Scattered Clouds,0,2014-02-13 01:35:00
7:55 PM,35.6,19.4,52,30.00,10.0,Calm,Calm,-,N/A,,Partly Cloudy,0,2014-02-13 01:55:00
8:15 PM,35.6,19.4,52,30.00,10.0,Calm,Calm,-,N/A,,Clear,0,2014-02-13 02:15:00
8:35 PM,33.8,19.4,56,30.00,10.0,Calm,Calm,-,N/A,,Partly Cloudy,0,2014-02-13 02:35:00
8:55 PM,32.0,19.4,60,29.99,10.0,Calm,Calm,-,N/A,,Partly Cloudy,0,2014-02-13 02:55:00
9:15 PM,32.0,19.4,60,29.99,10.0,Calm,Calm,-,N/A,,Scattered Clouds,0,2014-02-13 03:15:00
9:35 PM,32.0,19.4,60,30.00,10.0,Calm,Calm,-,N/A,,Mostly Cloudy,0,2014-02-13 03:35:00
9:55 PM,30.2,19.4,64,30.00,10.0,Calm,Calm,-,N/A,,Scattered Clouds,0,2014-02-13 03:55:00
10:15 PM,32.0,19.4,60,29.99,10.0,Calm,Calm,-,N/A,,Scattered Clouds,0,2014-02-13 04:15:00
10:35 PM,32.0,19.4,60,29.99,10.0,Calm,Calm,-,N/A,,Mostly Cloudy,0,2014-02-13 04:35:00
10:55 PM,32.0,19.4,60,29.99,10.0,Calm,Calm,-,N/A,,Partly Cloudy,0,2014-02-13 04:55:00
11:15 PM,28.4,19.4,69,29.98,10.0,Calm,Calm,-,N/A,,Partly Cloudy,0,2014-02-13 05:15:00
11:35 PM,28.4,19.4,69,29.99,10.0,Calm,Calm,-,N/A,,Partly Cloudy,0,2014-02-13 05:35:00
11:55 PM,28.4,19.4,69,29.97,10.0,ESE,3.5,-,N/A,,Scattered Clouds,120,2014-02-13 05:55:00